Time,TemperatureF,DewpointF,PressureIn,WindDirection,WindDirectionDegrees,WindSpeedMPH,WindSpeedGustMPH,Humidity,HourlyPrecipIn,Conditions,Clouds,dailyrainin,SoftwareType,DateUTC
2013-05-15 00:01:00,71.6,41.0,29.56,NW,315,4.5,6.3,33,0.00,,,0.00,WUHU216HW,2013-05-15 05:01:00,
2013-05-15 00:06:00,71.5,42.2,29.57,NNW,338,6.0,8.5,35,0.00,,,0.00,WUHU216HW,2013-05-15 05:06:00,
2013-05-15 00:11:00,71.3,42.0,29.57,NNW,338,6.3,8.5,35,0.00,,,0.00,WUHU216HW,2013-05-15 05:11:00,
2013-05-15 00:16:00,70.9,43.2,29.57,West,270,6.5,8.3,37,0.00,,,0.00,WUHU216HW,2013-05-15 05:16:00,
2013-05-15 00:21:00,70.6,43.7,29.57,North,0,6.0,7.4,38,0.00,,,0.00,WUHU216HW,2013-05-15 05:21:00,
2013-05-15 00:26:00,70.4,44.2,29.58,NNW,338,6.0,6.9,39,0.00,,,0.00,WUHU216HW,2013-05-15 05:26:00,
2013-05-15 00:31:00,70.0,44.7,29.58,NNW,338,6.3,6.7,40,0.00,,,0.00,WUHU216HW,2013-05-15 05:31:00,
2013-05-15 00:36:00,69.8,44.5,29.58,WNW,293,4.0,8.7,40,0.00,,,0.00,WUHU216HW,2013-05-15 05:36:00,
2013-05-15 00:42:00,69.5,44.7,29.58,NW,315,4.9,8.7,41,0.00,,,0.00,WUHU216HW,2013-05-15 05:42:00,
2013-05-15 00:47:00,69.3,44.6,29.59,WNW,293,2.0,8.1,41,0.00,,,0.00,WUHU216HW,2013-05-15 05:47:00,
2013-05-15 00:52:00,68.9,44.8,29.59,North,0,6.3,6.3,42,0.00,,,0.00,WUHU216HW,2013-05-15 05:52:00,
2013-05-15 00:57:00,68.8,44.6,29.59,NW,315,6.3,6.3,42,0.00,,,0.00,WUHU216HW,2013-05-15 05:57:00,
2013-05-15 01:02:00,68.6,44.6,29.60,WNW,293,3.1,6.3,42,0.00,,,0.00,WUHU216HW,2013-05-15 06:02:00,
2013-05-15 01:07:00,68.4,44.4,29.60,West,270,4.7,6.3,42,0.00,,,0.00,WUHU216HW,2013-05-15 06:07:00,
2013-05-15 01:12:00,68.0,44.0,29.60,WSW,248,3.4,4.7,42,0.00,,,0.00,WUHU216HW,2013-05-15 06:12:00,
2013-05-15 01:17:00,68.0,44.0,29.61,NW,315,4.5,6.7,42,0.00,,,0.00,WUHU216HW,2013-05-15 06:17:00,
2013-05-15 01:22:00,67.7,44.3,29.61,NW,315,2.5,6.7,43,0.00,,,0.00,WUHU216HW,2013-05-15 06:22:00,
2013-05-15 01:28:00,67.3,44.6,29.62,NNW,338,3.4,5.8,44,0.00,,,0.00,WUHU216HW,2013-05-15 06:28:00,
2013-05-15 01:33:00,67.1,44.4,29.62,West,270,3.4,5.1,44,0.00,,,0.00,WUHU216HW,2013-05-15 06:33:00,
2013-05-15 01:38:00,67.0,44.3,29.62,NNW,338,4.5,5.1,44,0.00,,,0.00,WUHU216HW,2013-05-15 06:38:00,
2013-05-15 01:43:00,66.8,44.1,29.62,WNW,293,2.2,5.4,44,0.00,,,0.00,WUHU216HW,2013-05-15 06:43:00,
2013-05-15 01:48:00,66.6,44.6,29.62,NW,315,4.0,5.4,45,0.00,,,0.00,WUHU216HW,2013-05-15 06:48:00,
2013-05-15 01:53:00,66.2,44.2,29.62,NW,315,3.1,5.1,45,0.00,,,0.00,WUHU216HW,2013-05-15 06:53:00,
2013-05-15 01:58:00,66.1,44.7,29.62,NW,315,3.8,4.7,46,0.00,,,0.00,WUHU216HW,2013-05-15 06:58:00,
2013-05-15 02:03:00,65.9,44.5,29.63,WNW,293,4.7,6.7,46,0.00,,,0.00,WUHU216HW,2013-05-15 07:03:00,
2013-05-15 02:09:00,65.7,44.8,29.63,WNW,293,3.4,6.7,47,0.00,,,0.00,WUHU216HW,2013-05-15 07:09:00,
2013-05-15 02:14:00,65.5,44.6,29.63,WNW,293,3.4,6.5,47,0.00,,,0.00,WUHU216HW,2013-05-15 07:14:00,
2013-05-15 02:19:00,65.2,44.4,29.63,North,0,2.5,4.7,47,0.00,,,0.00,WUHU216HW,2013-05-15 07:19:00,
2013-05-15 02:24:00,65.0,44.7,29.64,NW,315,3.4,4.7,48,0.00,,,0.00,WUHU216HW,2013-05-15 07:24:00,
2013-05-15 02:29:00,64.8,44.6,29.64,WNW,293,2.5,4.3,48,0.00,,,0.00,WUHU216HW,2013-05-15 07:29:00,
2013-05-15 02:34:00,64.4,44.8,29.64,WNW,293,3.6,4.7,49,0.00,,,0.00,WUHU216HW,2013-05-15 07:34:00,
2013-05-15 02:39:00,64.3,44.7,29.64,NW,315,1.3,4.7,49,0.00,,,0.00,WUHU216HW,2013-05-15 07:39:00,
2013-05-15 02:44:00,64.1,44.5,29.65,NNW,338,2.2,5.1,49,0.00,,,0.00,WUHU216HW,2013-05-15 07:44:00,
2013-05-15 02:49:00,63.9,44.9,29.65,NNW,338,1.3,5.1,50,0.00,,,0.00,WUHU216HW,2013-05-15 07:49:00,
2013-05-15 02:55:00,63.7,44.7,29.65,North,0,2.0,4.7,50,0.00,,,0.00,WUHU216HW,2013-05-15 07:55:00,
2013-05-15 03:00:00,63.5,44.6,29.65,WNW,293,1.6,3.1,50,0.00,,,0.00,WUHU216HW,2013-05-15 08:00:00,
2013-05-15 03:05:00,63.4,44.4,29.65,NW,315,1.8,3.1,50,0.00,,,0.00,WUHU216HW,2013-05-15 08:05:00,
2013-05-15 03:10:00,63.2,44.2,29.66,WNW,293,1.8,3.1,50,0.00,,,0.00,WUHU216HW,2013-05-15 08:10:00,
2013-05-15 03:15:00,63.0,44.1,29.66,NW,315,1.8,5.4,50,0.00,,,0.00,WUHU216HW,2013-05-15 08:15:00,
2013-05-15 03:20:00,62.8,44.4,29.66,NNW,338,1.8,5.4,51,0.00,,,0.00,WUHU216HW,2013-05-15 08:20:00,
2013-05-15 03:25:00,62.6,44.2,29.66,North,0,1.6,3.4,51,0.00,,,0.00,WUHU216HW,2013-05-15 08:25:00,
2013-05-15 03:30:00,62.5,44.6,29.66,NW,315,4.9,4.9,52,0.00,,,0.00,WUHU216HW,2013-05-15 08:30:00,
2013-05-15 03:35:00,62.3,43.9,29.66,NW,315,2.2,4.9,51,0.00,,,0.00,WUHU216HW,2013-05-15 08:35:00,
2013-05-15 03:41:00,62.1,43.7,29.66,North,0,1.8,4.5,51,0.00,,,0.00,WUHU216HW,2013-05-15 08:41:00,
2013-05-15 03:46:00,61.9,44.1,29.67,NNE,23,4.3,4.3,52,0.00,,,0.00,WUHU216HW,2013-05-15 08:46:00,
2013-05-15 03:51:00,61.7,43.9,29.67,NW,315,1.8,4.3,52,0.00,,,0.00,WUHU216HW,2013-05-15 08:51:00,
2013-05-15 03:56:00,61.6,43.7,29.68,NW,315,0.9,4.0,52,0.00,,,0.00,WUHU216HW,2013-05-15 08:56:00,
2013-05-15 04:01:00,61.6,43.7,29.68,WNW,293,1.8,4.0,52,0.00,,,0.00,WUHU216HW,2013-05-15 09:01:00,
2013-05-15 04:06:00,61.4,43.6,29.68,NNW,338,1.1,2.7,52,0.00,,,0.00,WUHU216HW,2013-05-15 09:06:00,
2013-05-15 04:11:00,61.2,43.9,29.68,NNW,338,1.1,3.6,53,0.00,,,0.00,WUHU216HW,2013-05-15 09:11:00,
2013-05-15 04:16:00,61.0,43.3,29.68,NW,315,1.1,3.6,52,0.00,,,0.00,WUHU216HW,2013-05-15 09:16:00,
2013-05-15 04:21:00,60.8,43.6,29.68,NW,315,2.0,2.9,53,0.00,,,0.00,WUHU216HW,2013-05-15 09:21:00,
2013-05-15 04:27:00,60.7,43.4,29.69,NNW,338,1.3,3.6,53,0.00,,,0.00,WUHU216HW,2013-05-15 09:27:00,
2013-05-15 04:32:00,60.5,43.2,29.70,NNW,338,1.8,3.6,53,0.00,,,0.00,WUHU216HW,2013-05-15 09:32:00,
2013-05-15 04:37:00,60.3,43.1,29.70,NW,315,1.1,2.5,53,0.00,,,0.00,WUHU216HW,2013-05-15 09:37:00,
2013-05-15 04:42:00,60.1,42.9,29.70,NNW,338,1.1,2.7,53,0.00,,,0.00,WUHU216HW,2013-05-15 09:42:00,
2013-05-15 04:47:00,60.1,42.9,29.70,WNW,293,1.1,2.7,53,0.00,,,0.00,WUHU216HW,2013-05-15 09:47:00,
2013-05-15 04:52:00,59.9,43.2,29.71,NW,315,0.4,2.5,54,0.00,,,0.00,WUHU216HW,2013-05-15 09:52:00,
2013-05-15 04:57:00,59.8,43.0,29.70,WNW,293,0.4,1.8,54,0.00,,,0.00,WUHU216HW,2013-05-15 09:57:00,
2013-05-15 05:03:00,59.6,42.8,29.70,WNW,293,1.1,1.1,54,0.00,,,0.00,WUHU216HW,2013-05-15 10:03:00,
2013-05-15 05:08:00,59.4,42.8,29.70,WNW,293,1.6,1.6,54,0.00,,,0.00,WUHU216HW,2013-05-15 10:08:00,
2013-05-15 05:13:00,59.4,42.8,29.71,WNW,293,1.1,1.6,54,0.00,,,0.00,WUHU216HW,2013-05-15 10:13:00,
2013-05-15 05:18:00,59.2,42.6,29.72,WNW,293,0.7,1.8,54,0.00,,,0.00,WUHU216HW,2013-05-15 10:18:00,
2013-05-15 05:23:00,59.0,42.4,29.72,WNW,293,0.4,1.8,54,0.00,,,0.00,WUHU216HW,2013-05-15 10:23:00,
2013-05-15 05:28:00,58.9,42.7,29.72,West,270,1.1,1.1,55,0.00,,,0.00,WUHU216HW,2013-05-15 10:28:00,
2013-05-15 05:33:00,58.7,42.5,29.72,West,270,0.0,1.1,55,0.00,,,0.00,WUHU216HW,2013-05-15 10:33:00,
2013-05-15 05:38:00,58.3,42.2,29.72,West,270,0.0,0.4,55,0.00,,,0.00,WUHU216HW,2013-05-15 10:38:00,
2013-05-15 05:44:00,58.0,42.3,29.73,West,270,0.7,0.7,56,0.00,,,0.00,WUHU216HW,2013-05-15 10:44:00,
2013-05-15 05:49:00,57.8,42.2,29.73,NW,315,0.0,0.7,56,0.00,,,0.00,WUHU216HW,2013-05-15 10:49:00,
2013-05-15 05:54:00,57.6,42.0,29.73,NW,315,0.4,0.7,56,0.00,,,0.00,WUHU216HW,2013-05-15 10:54:00,
2013-05-15 05:59:00,57.4,41.9,29.73,NW,315,0.4,0.7,56,0.00,,,0.00,WUHU216HW,2013-05-15 10:59:00,
2013-05-15 06:04:00,57.2,41.7,29.73,NW,315,0.7,1.1,56,0.00,,,0.00,WUHU216HW,2013-05-15 11:04:00,
2013-05-15 06:09:00,57.4,42.3,29.74,NW,315,0.4,1.6,57,0.00,,,0.00,WUHU216HW,2013-05-15 11:09:00,
2013-05-15 06:14:00,57.4,42.3,29.75,NNE,23,2.5,2.5,57,0.00,,,0.00,WUHU216HW,2013-05-15 11:14:00,
2013-05-15 06:20:00,57.4,42.3,29.75,North,0,0.7,2.5,57,0.00,,,0.00,WUHU216HW,2013-05-15 11:20:00,
2013-05-15 06:25:00,57.4,42.3,29.75,NW,315,0.9,2.0,57,0.00,,,0.00,WUHU216HW,2013-05-15 11:25:00,
2013-05-15 06:30:00,57.2,42.7,29.75,NNW,338,1.1,2.0,58,0.00,,,0.00,WUHU216HW,2013-05-15 11:30:00,
2013-05-15 06:35:00,57.2,42.7,29.75,NW,315,0.9,1.3,58,0.00,,,0.00,WUHU216HW,2013-05-15 11:35:00,
2013-05-15 06:40:00,57.4,42.8,29.76,NW,315,1.8,1.8,58,0.00,,,0.00,WUHU216HW,2013-05-15 11:40:00,
2013-05-15 06:45:00,57.4,42.8,29.76,WNW,293,1.1,1.8,58,0.00,,,0.00,WUHU216HW,2013-05-15 11:45:00,
2013-05-15 06:50:00,57.6,43.4,29.77,North,0,1.1,2.9,59,0.00,,,0.00,WUHU216HW,2013-05-15 11:50:00,
2013-05-15 06:55:00,58.0,43.7,29.76,NNW,338,1.1,2.9,59,0.00,,,0.00,WUHU216HW,2013-05-15 11:55:00,
2013-05-15 07:00:00,58.1,43.9,29.77,NW,315,1.6,2.2,59,0.00,,,0.00,WUHU216HW,2013-05-15 12:00:00,
2013-05-15 07:06:00,58.5,44.2,29.77,NNW,338,1.8,3.4,59,0.00,,,0.00,WUHU216HW,2013-05-15 12:06:00,
2013-05-15 07:11:00,58.7,44.4,29.77,NNW,338,1.3,3.4,59,0.00,,,0.00,WUHU216HW,2013-05-15 12:11:00,
2013-05-15 07:16:00,59.0,45.2,29.78,NNW,338,1.3,2.7,60,0.00,,,0.00,WUHU216HW,2013-05-15 12:16:00,
2013-05-15 07:21:00,59.4,45.1,29.77,WNW,293,1.8,3.4,59,0.00,,,0.00,WUHU216HW,2013-05-15 12:21:00,
2013-05-15 07:26:00,59.9,46.1,29.77,North,0,2.7,3.4,60,0.00,,,0.00,WUHU216HW,2013-05-15 12:26:00,
2013-05-15 07:32:00,60.3,46.0,29.77,North,0,1.6,5.1,59,0.00,,,0.00,WUHU216HW,2013-05-15 12:32:00,
2013-05-15 07:37:00,60.5,46.2,29.78,NNE,23,1.1,5.1,59,0.00,,,0.00,WUHU216HW,2013-05-15 12:37:00,
2013-05-15 07:42:00,60.8,46.5,29.78,NNW,338,3.8,3.8,59,0.00,,,0.00,WUHU216HW,2013-05-15 12:42:00,
2013-05-15 07:47:00,61.0,46.6,29.78,NNE,23,2.5,4.0,59,0.00,,,0.00,WUHU216HW,2013-05-15 12:47:00,
2013-05-15 07:52:00,61.6,47.2,29.78,North,0,3.1,4.0,59,0.00,,,0.00,WUHU216HW,2013-05-15 12:52:00,
2013-05-15 07:57:00,61.7,46.8,29.78,NW,315,4.0,7.6,58,0.00,,,0.00,WUHU216HW,2013-05-15 12:57:00,
2013-05-15 08:03:00,62.1,46.6,29.79,North,0,3.1,7.6,57,0.00,,,0.00,WUHU216HW,2013-05-15 13:03:00,
2013-05-15 08:08:00,62.3,46.8,29.79,NE,45,2.7,6.7,57,0.00,,,0.00,WUHU216HW,2013-05-15 13:08:00,
2013-05-15 08:13:00,62.6,46.6,29.79,North,0,2.9,6.9,56,0.00,,,0.00,WUHU216HW,2013-05-15 13:13:00,
2013-05-15 08:18:00,63.0,46.5,29.79,NNE,23,3.6,6.9,55,0.00,,,0.00,WUHU216HW,2013-05-15 13:18:00,
2013-05-15 08:23:00,63.5,46.5,29.79,NW,315,2.0,6.9,54,0.00,,,0.00,WUHU216HW,2013-05-15 13:23:00,
2013-05-15 08:28:00,63.7,46.2,29.80,North,0,3.4,6.9,53,0.00,,,0.00,WUHU216HW,2013-05-15 13:28:00,
2013-05-15 08:33:00,63.7,46.2,29.80,North,0,5.4,8.5,53,0.00,,,0.00,WUHU216HW,2013-05-15 13:33:00,
2013-05-15 08:39:00,63.7,46.2,29.80,NW,315,2.5,8.5,53,0.00,,,0.00,WUHU216HW,2013-05-15 13:39:00,
2013-05-15 08:44:00,63.9,46.4,29.79,North,0,0.9,4.0,53,0.00,,,0.00,WUHU216HW,2013-05-15 13:44:00,
2013-05-15 08:49:00,64.1,46.5,29.79,North,0,1.8,4.0,53,0.00,,,0.00,WUHU216HW,2013-05-15 13:49:00,
2013-05-15 08:54:00,64.3,46.6,29.79,North,0,4.0,4.0,53,0.00,,,0.00,WUHU216HW,2013-05-15 13:54:00,
2013-05-15 08:59:00,64.3,46.6,29.78,North,0,1.8,4.0,53,0.00,,,0.00,WUHU216HW,2013-05-15 13:59:00,
2013-05-15 09:05:00,64.3,46.6,29.77,North,0,3.1,4.9,53,0.00,,,0.00,WUHU216HW,2013-05-15 14:05:00,
2013-05-15 09:10:00,64.1,46.0,29.76,NNE,23,5.4,5.4,52,0.00,,,0.00,WUHU216HW,2013-05-15 14:10:00,
2013-05-15 09:15:00,63.9,46.4,29.74,SE,135,2.5,5.4,53,0.00,,,0.00,WUHU216HW,2013-05-15 14:15:00,
2013-05-15 09:20:00,63.7,46.2,29.73,NNW,338,1.8,5.6,53,0.00,,,0.00,WUHU216HW,2013-05-15 14:20:00,
2013-05-15 09:25:00,63.7,46.2,29.76,NNE,23,1.8,6.3,53,0.00,,,0.00,WUHU216HW,2013-05-15 14:25:00,
2013-05-15 09:30:00,64.1,46.5,29.77,WSW,248,2.5,6.3,53,0.00,,,0.00,WUHU216HW,2013-05-15 14:30:00,
2013-05-15 09:35:00,64.1,46.5,29.79,South,180,0.7,2.5,53,0.00,,,0.00,WUHU216HW,2013-05-15 14:35:00,
2013-05-15 09:40:00,64.4,46.4,29.79,North,0,0.9,2.0,52,0.00,,,0.00,WUHU216HW,2013-05-15 14:40:00,
2013-05-15 09:45:00,64.4,46.4,29.79,North,0,4.3,4.3,52,0.00,,,0.00,WUHU216HW,2013-05-15 14:45:00,
2013-05-15 09:50:00,64.6,46.0,29.79,NE,45,1.1,4.3,51,0.00,,,0.00,WUHU216HW,2013-05-15 14:50:00,
2013-05-15 09:55:00,64.8,46.2,29.79,NE,45,0.4,2.5,51,0.00,,,0.00,WUHU216HW,2013-05-15 14:55:00,
2013-05-15 10:00:00,65.2,47.1,29.78,East,90,2.5,2.5,52,0.00,,,0.00,WUHU216HW,2013-05-15 15:00:00,
2013-05-15 10:05:00,65.3,46.3,29.78,North,0,2.5,4.0,50,0.00,,,0.00,WUHU216HW,2013-05-15 15:05:00,
2013-05-15 10:10:00,65.5,45.8,29.78,NNW,338,2.5,4.0,49,0.00,,,0.00,WUHU216HW,2013-05-15 15:10:00,
2013-05-15 10:15:00,65.7,46.0,29.78,North,0,1.6,2.5,49,0.00,,,0.00,WUHU216HW,2013-05-15 15:15:00,
2013-05-15 10:20:00,65.9,46.2,29.78,NNW,338,1.1,2.5,49,0.00,,,0.00,WUHU216HW,2013-05-15 15:20:00,
2013-05-15 10:26:00,65.7,46.0,29.79,NW,315,2.0,3.1,49,0.00,,,0.00,WUHU216HW,2013-05-15 15:26:00,
2013-05-15 10:31:00,65.5,45.8,29.78,NW,315,0.4,3.1,49,0.00,,,0.00,WUHU216HW,2013-05-15 15:31:00,
2013-05-15 10:36:00,65.5,46.4,29.79,WNW,293,1.3,2.2,50,0.00,,,0.00,WUHU216HW,2013-05-15 15:36:00,
2013-05-15 10:41:00,65.2,46.5,29.79,NNW,338,0.9,2.2,51,0.00,,,0.00,WUHU216HW,2013-05-15 15:41:00,
2013-05-15 10:46:00,65.0,47.3,29.78,SE,135,1.1,2.2,53,0.00,,,0.00,WUHU216HW,2013-05-15 15:46:00,
2013-05-15 10:51:00,64.6,48.0,29.79,North,0,1.3,1.8,55,0.00,,,0.00,WUHU216HW,2013-05-15 15:51:00,
2013-05-15 10:56:00,64.3,48.6,29.78,North,0,0.4,1.8,57,0.00,,,0.00,WUHU216HW,2013-05-15 15:56:00,
2013-05-15 11:02:00,63.9,49.2,29.79,South,180,1.8,1.8,59,0.01,,,0.01,WUHU216HW,2013-05-15 16:02:00,
2013-05-15 11:07:00,63.7,49.6,29.78,South,180,1.3,1.8,60,0.01,,,0.01,WUHU216HW,2013-05-15 16:07:00,
2013-05-15 11:12:00,63.2,50.3,29.81,NW,315,1.1,2.0,63,0.01,,,0.01,WUHU216HW,2013-05-15 16:12:00,
2013-05-15 11:17:00,62.6,50.2,29.81,West,270,0.7,2.0,64,0.02,,,0.02,WUHU216HW,2013-05-15 16:17:00,
2013-05-15 11:22:00,62.5,50.5,29.81,South,180,2.2,2.2,65,0.02,,,0.02,WUHU216HW,2013-05-15 16:22:00,
2013-05-15 11:27:00,62.3,50.8,29.81,SSE,158,0.7,2.2,66,0.02,,,0.02,WUHU216HW,2013-05-15 16:27:00,
2013-05-15 11:32:00,62.1,51.0,29.81,SW,225,1.1,1.1,67,0.02,,,0.02,WUHU216HW,2013-05-15 16:32:00,
2013-05-15 11:37:00,62.1,51.4,29.81,WSW,248,0.0,1.1,68,0.02,,,0.02,WUHU216HW,2013-05-15 16:37:00,
2013-05-15 11:42:00,62.3,51.6,29.81,WSW,248,0.0,1.1,68,0.02,,,0.02,WUHU216HW,2013-05-15 16:42:00,
2013-05-15 11:47:00,62.3,51.6,29.79,NW,315,0.9,1.6,68,0.02,,,0.02,WUHU216HW,2013-05-15 16:47:00,
2013-05-15 11:53:00,62.5,51.8,29.79,NW,315,0.0,1.6,68,0.02,,,0.02,WUHU216HW,2013-05-15 16:53:00,
2013-05-15 11:58:00,62.6,51.5,29.80,NNW,338,0.4,1.8,67,0.02,,,0.02,WUHU216HW,2013-05-15 16:58:00,
2013-05-15 12:03:00,62.6,51.5,29.81,WNW,293,1.8,2.9,67,0.01,,,0.02,WUHU216HW,2013-05-15 17:03:00,
2013-05-15 12:08:00,62.8,51.7,29.80,WNW,293,1.1,2.9,67,0.01,,,0.02,WUHU216HW,2013-05-15 17:08:00,
2013-05-15 12:13:00,63.0,51.4,29.81,WSW,248,1.3,2.0,66,0.01,,,0.02,WUHU216HW,2013-05-15 17:13:00,
2013-05-15 12:18:00,63.4,51.4,29.81,WNW,293,0.9,2.5,65,0.00,,,0.02,WUHU216HW,2013-05-15 17:18:00,
2013-05-15 12:23:00,63.4,51.4,29.81,SW,225,2.0,3.4,65,0.00,,,0.02,WUHU216HW,2013-05-15 17:23:00,
2013-05-15 12:28:00,63.9,51.8,29.81,WSW,248,1.8,3.4,65,0.00,,,0.02,WUHU216HW,2013-05-15 17:28:00,
2013-05-15 12:33:00,64.3,52.2,29.81,West,270,2.5,2.7,65,0.00,,,0.02,WUHU216HW,2013-05-15 17:33:00,
2013-05-15 12:39:00,64.6,51.7,29.80,SW,225,2.7,4.7,63,0.00,,,0.02,WUHU216HW,2013-05-15 17:39:00,
2013-05-15 12:44:00,64.6,51.7,29.80,WSW,248,2.0,4.7,63,0.00,,,0.02,WUHU216HW,2013-05-15 17:44:00,
2013-05-15 12:49:00,64.8,51.5,29.80,West,270,2.2,3.4,62,0.00,,,0.02,WUHU216HW,2013-05-15 17:49:00,
2013-05-15 12:54:00,65.2,51.8,29.80,West,270,1.8,3.4,62,0.00,,,0.02,WUHU216HW,2013-05-15 17:54:00,
2013-05-15 12:59:00,65.2,50.9,29.80,WSW,248,1.1,3.4,60,0.00,,,0.02,WUHU216HW,2013-05-15 17:59:00,
2013-05-15 13:05:00,65.2,50.5,29.80,WSW,248,2.9,3.8,59,0.00,,,0.02,WUHU216HW,2013-05-15 18:05:00,
2013-05-15 13:10:00,65.5,50.9,29.79,SW,225,2.5,4.9,59,0.00,,,0.02,WUHU216HW,2013-05-15 18:10:00,
2013-05-15 13:15:00,65.9,50.7,29.79,NW,315,3.1,4.9,58,0.00,,,0.02,WUHU216HW,2013-05-15 18:15:00,
2013-05-15 13:20:00,66.2,51.0,29.79,SW,225,1.3,3.4,58,0.00,,,0.02,WUHU216HW,2013-05-15 18:20:00,
2013-05-15 13:25:00,66.8,51.6,29.79,West,270,2.5,3.4,58,0.00,,,0.02,WUHU216HW,2013-05-15 18:25:00,
2013-05-15 13:30:00,67.5,51.7,29.79,WSW,248,1.6,4.0,57,0.00,,,0.02,WUHU216HW,2013-05-15 18:30:00,
2013-05-15 13:35:00,68.4,52.0,29.79,NNW,338,2.2,4.0,56,0.00,,,0.02,WUHU216HW,2013-05-15 18:35:00,
2013-05-15 13:40:00,68.6,51.2,29.79,WSW,248,4.5,4.5,54,0.00,,,0.02,WUHU216HW,2013-05-15 18:40:00,
2013-05-15 13:45:00,69.1,51.8,29.78,West,270,3.4,4.5,54,0.00,,,0.02,WUHU216HW,2013-05-15 18:45:00,
2013-05-15 13:50:00,69.5,51.6,29.78,SSW,203,2.5,4.7,53,0.00,,,0.02,WUHU216HW,2013-05-15 18:50:00,
2013-05-15 13:55:00,69.7,51.2,29.78,WNW,293,2.7,4.7,52,0.00,,,0.02,WUHU216HW,2013-05-15 18:55:00,
2013-05-15 14:01:00,69.8,51.0,29.77,SSE,158,3.8,3.8,51,0.00,,,0.02,WUHU216HW,2013-05-15 19:01:00,
2013-05-15 14:06:00,70.2,51.8,29.77,WSW,248,2.0,3.8,52,0.00,,,0.02,WUHU216HW,2013-05-15 19:06:00,
2013-05-15 14:11:00,70.4,51.4,29.77,SW,225,3.1,3.4,51,0.00,,,0.02,WUHU216HW,2013-05-15 19:11:00,
2013-05-15 14:16:00,70.7,52.2,29.77,WSW,248,2.0,3.4,52,0.00,,,0.02,WUHU216HW,2013-05-15 19:16:00,
2013-05-15 14:21:00,71.3,51.1,29.76,West,270,4.0,4.0,49,0.00,,,0.02,WUHU216HW,2013-05-15 19:21:00,
2013-05-15 14:26:00,71.5,51.8,29.76,WSW,248,1.8,4.0,50,0.00,,,0.02,WUHU216HW,2013-05-15 19:26:00,
2013-05-15 14:31:00,71.6,51.4,29.76,SSW,203,4.0,4.0,49,0.00,,,0.02,WUHU216HW,2013-05-15 19:31:00,
2013-05-15 14:36:00,72.0,51.1,29.76,WNW,293,1.3,4.0,48,0.00,,,0.02,WUHU216HW,2013-05-15 19:36:00,
2013-05-15 14:41:00,72.5,51.0,29.76,SW,225,2.7,2.7,47,0.00,,,0.02,WUHU216HW,2013-05-15 19:41:00,
2013-05-15 14:46:00,72.9,51.4,29.76,SW,225,1.3,3.8,47,0.00,,,0.02,WUHU216HW,2013-05-15 19:46:00,
2013-05-15 14:51:00,73.1,50.9,29.76,NW,315,3.4,5.1,46,0.00,,,0.02,WUHU216HW,2013-05-15 19:51:00,
2013-05-15 14:56:00,73.3,50.5,29.75,SW,225,2.2,5.1,45,0.00,,,0.02,WUHU216HW,2013-05-15 19:56:00,
2013-05-15 15:02:00,73.8,51.0,29.75,WNW,293,3.8,3.8,45,0.00,,,0.02,WUHU216HW,2013-05-15 20:02:00,
2013-05-15 15:07:00,73.4,50.0,29.75,South,180,1.6,3.8,44,0.00,,,0.02,WUHU216HW,2013-05-15 20:07:00,
2013-05-15 15:12:00,73.8,50.4,29.75,SW,225,3.6,3.6,44,0.00,,,0.02,WUHU216HW,2013-05-15 20:12:00,
2013-05-15 15:17:00,74.5,51.1,29.75,WSW,248,3.6,3.6,44,0.00,,,0.02,WUHU216HW,2013-05-15 20:17:00,
2013-05-15 15:22:00,74.9,50.9,29.75,SSE,158,2.5,3.6,43,0.00,,,0.02,WUHU216HW,2013-05-15 20:22:00,
2013-05-15 15:27:00,75.2,50.6,29.75,North,0,1.6,5.1,42,0.00,,,0.02,WUHU216HW,2013-05-15 20:27:00,
2013-05-15 15:32:00,75.2,50.6,29.74,West,270,4.0,5.1,42,0.00,,,0.02,WUHU216HW,2013-05-15 20:32:00,
2013-05-15 15:38:00,75.6,50.9,29.74,WNW,293,2.7,4.0,42,0.00,,,0.02,WUHU216HW,2013-05-15 20:38:00,
2013-05-15 15:43:00,76.0,50.6,29.74,WSW,248,2.9,3.4,41,0.00,,,0.02,WUHU216HW,2013-05-15 20:43:00,
2013-05-15 15:48:00,76.5,51.7,29.74,SW,225,2.7,3.1,42,0.00,,,0.02,WUHU216HW,2013-05-15 20:48:00,
2013-05-15 15:54:00,77.0,52.2,29.74,SW,225,3.4,3.4,42,0.00,,,0.02,WUHU216HW,2013-05-15 20:54:00,
2013-05-15 15:59:00,77.2,51.1,29.74,West,270,0.4,3.4,40,0.00,,,0.02,WUHU216HW,2013-05-15 20:59:00,
2013-05-15 16:04:00,77.2,51.1,29.74,WSW,248,2.2,5.1,40,0.00,,,0.02,WUHU216HW,2013-05-15 21:04:00,
2013-05-15 16:09:00,76.9,50.8,29.74,NNW,338,2.5,5.1,40,0.00,,,0.02,WUHU216HW,2013-05-15 21:09:00,
2013-05-15 16:14:00,77.0,50.9,29.73,SSW,203,1.1,3.1,40,0.00,,,0.02,WUHU216HW,2013-05-15 21:14:00,
2013-05-15 16:19:00,77.4,51.3,29.73,NW,315,4.0,4.0,40,0.00,,,0.02,WUHU216HW,2013-05-15 21:19:00,
2013-05-15 16:24:00,77.4,50.5,29.74,WNW,293,2.9,6.5,39,0.00,,,0.02,WUHU216HW,2013-05-15 21:24:00,
2013-05-15 16:29:00,77.4,51.3,29.73,WSW,248,2.2,6.5,40,0.00,,,0.02,WUHU216HW,2013-05-15 21:29:00,
2013-05-15 16:35:00,77.9,51.8,29.73,SSW,203,4.7,4.7,40,0.00,,,0.02,WUHU216HW,2013-05-15 21:35:00,
2013-05-15 16:40:00,78.1,51.1,29.73,SW,225,1.1,8.5,39,0.00,,,0.02,WUHU216HW,2013-05-15 21:40:00,
2013-05-15 16:45:00,78.7,51.7,29.73,NNW,338,3.1,8.5,39,0.00,,,0.02,WUHU216HW,2013-05-15 21:45:00,
2013-05-15 16:51:00,78.5,51.5,29.73,WNW,293,2.7,4.9,39,0.00,,,0.02,WUHU216HW,2013-05-15 21:51:00,
2013-05-15 16:56:00,78.7,51.7,29.73,NNW,338,1.1,4.9,39,0.00,,,0.02,WUHU216HW,2013-05-15 21:56:00,
2013-05-15 17:01:00,79.0,51.2,29.73,WSW,248,3.6,4.7,38,0.00,,,0.02,WUHU216HW,2013-05-15 22:01:00,
2013-05-15 17:06:00,79.6,51.7,29.73,WNW,293,2.5,4.7,38,0.00,,,0.02,WUHU216HW,2013-05-15 22:06:00,
2013-05-15 17:11:00,79.9,51.2,29.73,NNW,338,2.7,4.7,37,0.00,,,0.02,WUHU216HW,2013-05-15 22:11:00,
2013-05-15 17:16:00,80.1,51.4,29.73,West,270,1.1,3.4,37,0.00,,,0.02,WUHU216HW,2013-05-15 22:16:00,
2013-05-15 17:21:00,81.0,52.2,29.73,SW,225,2.0,3.6,37,0.00,,,0.02,WUHU216HW,2013-05-15 22:21:00,
2013-05-15 17:26:00,82.1,53.1,29.73,SW,225,0.9,6.0,37,0.00,,,0.02,WUHU216HW,2013-05-15 22:26:00,
2013-05-15 17:31:00,83.0,52.3,29.72,WNW,293,2.0,6.0,35,0.00,,,0.02,WUHU216HW,2013-05-15 22:31:00,
2013-05-15 17:37:00,83.5,52.8,29.73,WNW,293,2.2,4.0,35,0.00,,,0.02,WUHU216HW,2013-05-15 22:37:00,
2013-05-15 17:42:00,83.3,51.8,29.72,WSW,248,2.5,3.6,34,0.00,,,0.02,WUHU216HW,2013-05-15 22:42:00,
2013-05-15 17:47:00,83.5,52.0,29.72,SSW,203,4.0,5.4,34,0.00,,,0.02,WUHU216HW,2013-05-15 22:47:00,
2013-05-15 17:52:00,83.9,52.4,29.72,SW,225,1.3,5.4,34,0.00,,,0.02,WUHU216HW,2013-05-15 22:52:00,
2013-05-15 17:57:00,84.6,52.2,29.72,NW,315,3.8,5.1,33,0.00,,,0.02,WUHU216HW,2013-05-15 22:57:00,
2013-05-15 18:02:00,84.2,51.8,29.72,SSE,158,1.3,3.8,33,0.00,,,0.02,WUHU216HW,2013-05-15 23:02:00,
2013-05-15 18:07:00,83.3,51.0,29.72,NNW,338,2.5,3.4,33,0.00,,,0.02,WUHU216HW,2013-05-15 23:07:00,
2013-05-15 18:13:00,82.3,50.1,29.72,SW,225,3.1,3.4,33,0.00,,,0.02,WUHU216HW,2013-05-15 23:13:00,
2013-05-15 18:18:00,81.7,50.4,29.72,SW,225,3.4,4.9,34,0.00,,,0.02,WUHU216HW,2013-05-15 23:18:00,
2013-05-15 18:23:00,81.7,51.2,29.72,WSW,248,2.0,4.9,35,0.00,,,0.02,WUHU216HW,2013-05-15 23:23:00,
2013-05-15 18:28:00,83.3,52.7,29.72,SSW,203,3.1,3.8,35,0.00,,,0.02,WUHU216HW,2013-05-15 23:28:00,
2013-05-15 18:33:00,83.9,51.6,29.72,WSW,248,2.2,3.8,33,0.00,,,0.02,WUHU216HW,2013-05-15 23:33:00,
2013-05-15 18:38:00,83.7,51.4,29.72,WNW,293,2.2,6.0,33,0.00,,,0.02,WUHU216HW,2013-05-15 23:38:00,
2013-05-15 18:43:00,82.8,50.6,29.72,SW,225,2.5,6.0,33,0.00,,,0.02,WUHU216HW,2013-05-15 23:43:00,
2013-05-15 18:48:00,82.1,50.8,29.72,SW,225,1.6,4.0,34,0.00,,,0.02,WUHU216HW,2013-05-15 23:48:00,
2013-05-15 18:53:00,81.9,50.6,29.72,SSW,203,3.1,3.4,34,0.00,,,0.02,WUHU216HW,2013-05-15 23:53:00,
2013-05-15 18:58:00,81.7,50.4,29.72,WSW,248,1.8,4.5,34,0.00,,,0.02,WUHU216HW,2013-05-15 23:58:00,
2013-05-15 19:03:00,81.2,50.0,29.72,SW,225,2.0,4.5,34,0.00,,,0.02,WUHU216HW,2013-05-16 00:03:00,
2013-05-15 19:08:00,79.7,49.5,29.72,SW,225,3.4,3.4,35,0.00,,,0.02,WUHU216HW,2013-05-16 00:08:00,
2013-05-15 19:14:00,78.7,48.5,29.72,SW,225,1.6,4.0,35,0.00,,,0.02,WUHU216HW,2013-05-16 00:14:00,
2013-05-15 19:19:00,77.9,49.4,29.72,SW,225,1.8,4.3,37,0.00,,,0.02,WUHU216HW,2013-05-16 00:19:00,
2013-05-15 19:25:00,77.2,48.9,29.72,WSW,248,1.8,4.3,37,0.00,,,0.02,WUHU216HW,2013-05-16 00:25:00,
2013-05-15 19:30:00,76.9,49.2,29.72,WSW,248,6.0,6.0,38,0.00,,,0.02,WUHU216HW,2013-05-16 00:30:00,
2013-05-15 19:35:00,76.5,49.0,29.71,SW,225,2.5,6.0,38,0.00,,,0.02,WUHU216HW,2013-05-16 00:35:00,
2013-05-15 19:41:00,76.0,49.2,29.71,SW,225,4.3,4.5,39,0.00,,,0.02,WUHU216HW,2013-05-16 00:41:00,
2013-05-15 19:47:00,75.6,48.9,29.71,WSW,248,1.8,4.3,39,0.00,,,0.02,WUHU216HW,2013-05-16 00:47:00,
2013-05-15 19:52:00,75.2,48.6,29.71,WSW,248,0.9,3.4,39,0.00,,,0.02,WUHU216HW,2013-05-16 00:52:00,
2013-05-15 19:57:00,75.1,49.1,29.72,SSW,203,1.8,2.7,40,0.00,,,0.02,WUHU216HW,2013-05-16 00:57:00,
2013-05-15 20:03:00,74.7,48.9,29.71,WSW,248,1.3,2.5,40,0.00,,,0.02,WUHU216HW,2013-05-16 01:03:00,
2013-05-15 20:08:00,74.5,48.7,29.72,SW,225,2.5,2.5,40,0.00,,,0.02,WUHU216HW,2013-05-16 01:08:00,
2013-05-15 20:13:00,74.2,48.3,29.71,WSW,248,1.6,2.5,40,0.00,,,0.02,WUHU216HW,2013-05-16 01:13:00,
2013-05-15 20:18:00,73.8,48.6,29.71,SW,225,1.1,2.5,41,0.00,,,0.02,WUHU216HW,2013-05-16 01:18:00,
2013-05-15 20:23:00,73.4,48.3,29.72,SW,225,0.0,2.5,41,0.00,,,0.02,WUHU216HW,2013-05-16 01:23:00,
2013-05-15 20:28:00,73.1,48.6,29.72,WNW,293,0.9,1.1,42,0.00,,,0.02,WUHU216HW,2013-05-16 01:28:00,
2013-05-15 20:33:00,72.4,48.5,29.71,SW,225,0.0,1.3,43,0.00,,,0.02,WUHU216HW,2013-05-16 01:33:00,
2013-05-15 20:38:00,71.8,48.1,29.72,WSW,248,0.0,0.7,43,0.00,,,0.02,WUHU216HW,2013-05-16 01:38:00,
2013-05-15 20:44:00,71.1,48.0,29.72,WSW,248,0.7,0.7,44,0.00,,,0.02,WUHU216HW,2013-05-16 01:44:00,
2013-05-15 20:49:00,70.6,48.1,29.72,WSW,248,0.0,0.7,45,0.00,,,0.02,WUHU216HW,2013-05-16 01:49:00,
2013-05-15 20:54:00,70.2,47.8,29.72,WNW,293,0.0,0.4,45,0.00,,,0.02,WUHU216HW,2013-05-16 01:54:00,
2013-05-15 20:59:00,69.5,47.7,29.72,WNW,293,0.0,0.0,46,0.00,,,0.02,WUHU216HW,2013-05-16 01:59:00,
2013-05-15 21:05:00,69.1,47.3,29.72,SW,225,0.4,0.4,46,0.00,,,0.02,WUHU216HW,2013-05-16 02:05:00,
2013-05-15 21:10:00,68.8,47.1,29.72,SW,225,0.4,0.9,46,0.00,,,0.02,WUHU216HW,2013-05-16 02:10:00,
2013-05-15 21:15:00,68.4,46.7,29.72,SW,225,0.4,0.9,46,0.00,,,0.02,WUHU216HW,2013-05-16 02:15:00,
2013-05-15 21:20:00,68.0,47.0,29.72,SW,225,0.4,1.1,47,0.00,,,0.02,WUHU216HW,2013-05-16 02:20:00,
2013-05-15 21:25:00,67.9,46.8,29.72,SW,225,1.1,1.1,47,0.00,,,0.02,WUHU216HW,2013-05-16 02:25:00,
2013-05-15 21:31:00,67.7,46.7,29.72,SW,225,0.4,1.1,47,0.00,,,0.02,WUHU216HW,2013-05-16 02:31:00,
2013-05-15 21:36:00,67.3,46.4,29.72,SW,225,1.1,1.1,47,0.00,,,0.02,WUHU216HW,2013-05-16 02:36:00,
2013-05-15 21:41:00,67.1,46.8,29.71,WSW,248,0.4,1.1,48,0.00,,,0.02,WUHU216HW,2013-05-16 02:41:00,
2013-05-15 21:46:00,67.0,46.6,29.72,SW,225,1.1,1.1,48,0.00,,,0.02,WUHU216HW,2013-05-16 02:46:00,
2013-05-15 21:51:00,66.6,46.3,29.72,SW,225,0.2,1.1,48,0.00,,,0.02,WUHU216HW,2013-05-16 02:51:00,
2013-05-15 21:56:00,66.6,46.3,29.72,South,180,0.7,1.1,48,0.00,,,0.02,WUHU216HW,2013-05-16 02:56:00,
2013-05-15 22:02:00,66.2,46.0,29.72,SSW,203,0.7,0.7,48,0.00,,,0.02,WUHU216HW,2013-05-16 03:02:00,
2013-05-15 22:07:00,66.1,46.4,29.72,WSW,248,0.4,1.1,49,0.00,,,0.02,WUHU216HW,2013-05-16 03:07:00,
2013-05-15 22:12:00,65.9,46.2,29.72,WSW,248,0.0,1.1,49,0.00,,,0.02,WUHU216HW,2013-05-16 03:12:00,
2013-05-15 22:17:00,65.7,46.0,29.72,WSW,248,0.4,0.7,49,0.00,,,0.02,WUHU216HW,2013-05-16 03:17:00,
2013-05-15 22:22:00,65.5,45.8,29.72,WSW,248,0.0,0.7,49,0.00,,,0.02,WUHU216HW,2013-05-16 03:22:00,
2013-05-15 22:27:00,65.3,45.7,29.72,SW,225,0.9,0.9,49,0.00,,,0.02,WUHU216HW,2013-05-16 03:27:00,
2013-05-15 22:32:00,65.2,45.6,29.72,SW,225,0.7,0.9,49,0.00,,,0.02,WUHU216HW,2013-05-16 03:32:00,
2013-05-15 22:38:00,65.2,46.1,29.72,SW,225,1.6,1.6,50,0.00,,,0.02,WUHU216HW,2013-05-16 03:38:00,
2013-05-15 22:43:00,65.0,45.9,29.72,SW,225,0.4,1.6,50,0.00,,,0.02,WUHU216HW,2013-05-16 03:43:00,
2013-05-15 22:48:00,65.0,45.4,29.72,SW,225,0.2,1.1,49,0.00,,,0.02,WUHU216HW,2013-05-16 03:48:00,
2013-05-15 22:53:00,64.8,45.7,29.72,WSW,248,1.1,1.1,50,0.00,,,0.02,WUHU216HW,2013-05-16 03:53:00,
2013-05-15 22:58:00,64.8,45.7,29.72,WSW,248,0.0,1.1,50,0.00,,,0.02,WUHU216HW,2013-05-16 03:58:00,
2013-05-15 23:01:00,64.6,45.5,29.72,WSW,248,0.2,1.1,50,0.00,,,0.02,WUHU216HW,2013-05-16 04:01:00,
2013-05-15 23:02:00,64.6,45.5,29.72,WSW,248,0.0,1.1,50,0.00,,,0.02,WUHU216HW,2013-05-16 04:02:00,
2013-05-15 23:07:00,64.4,45.4,29.72,WSW,248,1.1,1.8,50,0.00,,,0.02,WUHU216HW,2013-05-16 04:07:00,
2013-05-15 23:13:00,64.4,45.4,29.72,SW,225,0.7,1.8,50,0.00,,,0.02,WUHU216HW,2013-05-16 04:13:00,
2013-05-15 23:18:00,64.1,45.0,29.72,WSW,248,0.0,1.3,50,0.00,,,0.02,WUHU216HW,2013-05-16 04:18:00,
2013-05-15 23:23:00,64.1,45.0,29.72,WSW,248,0.0,1.1,50,0.00,,,0.02,WUHU216HW,2013-05-16 04:23:00,
2013-05-15 23:28:00,63.7,45.2,29.72,WSW,248,0.0,1.6,51,0.00,,,0.02,WUHU216HW,2013-05-16 04:28:00,
2013-05-15 23:33:00,63.7,45.2,29.73,WSW,248,0.0,1.6,51,0.00,,,0.02,WUHU216HW,2013-05-16 04:33:00,
2013-05-15 23:38:00,63.5,44.6,29.73,SW,225,0.4,0.4,50,0.00,,,0.02,WUHU216HW,2013-05-16 04:38:00,
2013-05-15 23:43:00,63.5,45.0,29.73,SW,225,0.7,0.9,51,0.00,,,0.02,WUHU216HW,2013-05-16 04:43:00,
2013-05-15 23:48:00,63.4,44.9,29.73,SW,225,0.0,0.9,51,0.00,,,0.02,WUHU216HW,2013-05-16 04:48:00,
2013-05-15 23:54:00,63.2,44.7,29.73,SW,225,1.1,1.1,51,0.00,,,0.02,WUHU216HW,2013-05-16 04:54:00,
2013-05-15 23:59:00,63.2,44.2,29.73,SW,225,0.2,2.5,50,0.00,,,0.02,WUHU216HW,2013-05-16 04:59:00,